Location: Bannatyne
(13.0833°N, 59.5333°W)
Time: 20:51:57
(UTC+00:00)

FengYun 1-2 T - Pass Details

Date: 18 October 2019
Orbit: 846 x 882 km, 98.7° (Epoch: 14 November)

Event Time Altitude Azimuth Distance (km) Brightness Sun altitude
Rises 22:21:44 0° 161° (SSE) 3,471 7.3 -11.5°
Reaches altitude 10° 22:24:08 10° 158° (SSE) 2,533 6.5 -12.0°
Maximum altitude 22:29:43 66° 76° (ENE) 957 4.2 -13.4°
Drops below altitude 10° 22:35:17 10° 355° (N) 2,525 6.7 -14.7°
Sets 22:37:41 0° 353° (N) 3,459 7.4 -15.3°
